Dewpoint
52 52 52 51 51 51 51 51 50 49 49 48 46 44 43 41 42 42 41 41 38 39 42 42 41 35 14 7 7 12 34 29 23 22 19 19 17 15 13 13 15 14 14 15 16 17 17
52 52 52 52 51 51 51 51 51 50 49 48 47 45 43 41 40 41 41 41 41 41 42 42 42 30 10 3 12 16 20 20 20 20 19 20 18 19 16 15 14 14 16 16 17 17 19
52 52 52 52 51 51 51 51 51 50 49 48 47 44 43 41 39 41 41 41 41 42 42 42 41 9 6 7 14 15 15 18 22 20 20 22 21 19 19 16 18 17 16 16 16 17 19
52 51 51 51 51 51 51 51 51 50 50 49 48 45 42 39 39 42 43 40 39 42 42 33 31 5 1 12 19 13 14 19 26 24 25 24 23 22 19 20 19 14 16 11 13 16 18
51 51 51 51 51 51 51 51 51 50 50 49 48 47 43 40 40 42 42 41 39 38 35 23 9 5 2 17 13 15 14 20 23 27 27 24 26 22 23 18 10 11 6 11 13 14 20
52 51 51 51 51 51 51 50 50 50 49 49 48 47 44 41 41 42 42 36 35 27 15 5 5 -5 1 8 15 15 14 21 20 24 23 23 21 18 19 15 -0 4 6 13 15 18 20
52 51 51 51 51 51 51 50 50 50 49 49 48 47 44 41 39 40 31 23 16 14 10 -0 2 2 7 13 16 14 16 18 19 18 17 20 15 13 21 19 20 20 11 11 16 18 22
52 52 51 51 51 51 51 50 50 49 49 48 48 47 45 40 37 37 29 18 21 16 3 10 9 9 11 16 8 12 16 14 14 12 17 15 6 20 21 20 18 19 6 7 17 20 21
52 52 52 52 52 52 51 51 50 50 49 48 48 47 44 40 36 25 29 28 33 30 1 7 10 9 10 12 9 11 13 15 13 11 13 14 14 19 20 18 16 12 6 15 17 21 21
52 52 52 52 52 52 51 51 51 50 49 48 47 46 40 40 23 22 18 25 32 26 7 4 2 7 12 15 4 14 16 16 10 11 14 14 16 16 12 11 20 6 19 20 19 18 15
52 52 52 52 52 52 52 52 51 50 49 47 46 45 38 33 18 17 20 28 32 18 6 7 4 15 14 6 8 6 15 14 13 9 10 8 11 14 13 16 18 12 20 18 19 15 20
52 52 52 52 52 52 52 52 51 49 49 47 45 43 35 22 22 23 26 28 19 10 4 3 7 10 7 8 8 12 12 13 15 12 11 9 16 18 8 18 20 17 15 19 22 19 9
51 52 52 52 51 51 51 51 51 50 49 47 44 42 27 18 13 26 28 18 9 9 1 4 3 9 9 5 6 10 10 9 7 -4 -2 6 9 13 17 13 12 10 2 -2 -1 1 7
51 51 51 51 51 51 51 51 51 50 50 44 44 39 29 22 25 27 20 11 6 -2 -6 8 8 7 2 7 5 7 6 7 9 5 -1 -3 -3 5 13 7 4 6 -1 -4 -8 -2 3
50 51 51 50 50 50 50 51 51 51 50 39 37 23 19 24 27 22 11 4 7 3 6 6 4 1 0 5 6 4 5 7 6 3 -3 -5 -7 11 15 17 11 5 5 8 -2 0 -2
50 50 50 50 50 50 50 50 50 51 47 36 19 16 16 27 27 17 10 2 5 7 10 8 0 6 1 3 2 6 3 8 9 14 10 3 2 9 12 13 14 8 8 1 0 -7 -8
49 50 50 49 49 49 50 50 50 50 46 37 20 14 15 27 19 14 4 6 8 13 11 7 6 5 6 6 8 7 6 10 12 14 12 4 -0 3 6 3 0 6 1 1 -3 -6 -9
48 49 49 49 49 49 50 50 50 49 43 28 20 22 22 21 13 6 2 8 13 12 15 13 11 9 9 9 8 8 7 8 13 15 11 11 1 2 -8 -0 5 -3 -5 -7 -2 -5 -8
48 48 48 48 48 48 49 49 49 48 42 26 20 19 29 23 16 8 6 9 11 11 11 12 12 13 13 9 2 8 10 15 14 16 11 10 1 -6 2 1 5 -2 -6 -10 -11 -3 -14
48 47 47 47 48 48 48 49 49 48 43 29 26 21 26 18 11 7 10 9 8 14 11 13 12 13 11 9 11 5 9 12 15 17 20 14 0 -3 -2 1 -0 -6 1 -4 -4 -9 -10
48 48 47 47 47 46 46 47 48 48 44 34 29 21 22 20 22 12 11 11 11 9 14 12 11 10 8 -0 2 8 10 9 12 16 12 6 -2 4 4 4 5 4 3 -1 -4 -5 -5
51 49 48 47 46 46 45 46 47 47 42 31 31 28 22 19 22 18 15 17 14 13 10 11 11 8 8 3 6 1 -1 2 3 7 8 8 -1 3 -1 2 5 4 5 6 4 1 1
51 51 50 48 47 46 44 45 45 44 39 32 28 29 29 24 22 20 20 19 19 13 17 14 14 11 7 11 12 9 8 9 7 5 3 -1 2 -1 -2 1 0 -8 -3 3 -0 1 2
52 52 51 50 49 47 44 43 44 43 37 33 29 29 30 27 23 25 22 19 22 20 16 15 15 10 14 17 16 14 13 13 11 11 10 -4 -9 -7 -1 -0 -4 -3 4 4 3 3 4
53 52 52 51 50 49 46 41 42 43 39 33 31 31 34 33 26 27 26 27 23 15 18 18 18 16 17 14 9 4 8 9 10 9 5 -0 -6 -7 -7 -8 1 -1 2 5 2 -0 5
53 53 52 52 51 50 49 45 42 41 40 36 34 34 35 33 32 31 28 24 27 17 16 18 18 17 15 17 11 0 3 3 2 4 9 8 -2 -2 -8 -10 -5 4 3 10 4 -4 5
53 53 52 52 52 51 50 48 45 43 42 38 36 35 36 33 35 27 31 31 23 17 23 21 19 17 14 12 10 9 5 5 3 -2 -1 4 6 -2 -2 -8 0 5 8 11 -2 5 7
53 53 52 52 52 51 51 50 48 45 44 40 38 36 37 33 35 29 29 27 22 24 28 24 23 13 11 7 8 7 5 6 2 3 1 2 -2 -3 -7 -9 -2 7 11 -0 9 4 9
53 53 52 52 52 52 51 51 50 47 45 42 38 37 37 35 36 33 31 28 31 30 29 23 26 18 18 9 6 5 7 -0 3 6 5 4 7 4 5 6 10 12 12 9 4 7 8
Lifted_Index
11 11 11 11 11 11 11 11 12 12 13 13 14 15 15 16 16 16 16 17 17 17 17 17 17 19 19 18 19 21 20 20 19 18 17 17 15 13 10 9 9 10 11 13 15 17 17
11 11 11 11 11 11 11 11 12 12 12 13 14 15 16 16 17 16 16 17 17 17 17 17 17 19 19 18 20 21 20 19 18 18 17 16 15 12 9 8 8 9 10 11 13 14 15
11 11 11 11 11 11 11 12 12 12 12 13 14 15 16 17 17 17 16 17 17 17 17 17 18 20 20 20 21 21 19 18 18 17 17 16 13 10 8 7 7 8 8 9 10 11 12
11 11 12 12 12 11 11 12 12 12 13 13 14 15 16 17 17 17 17 17 17 17 17 19 20 20 20 20 21 20 19 18 18 17 17 15 12 9 7 6 6 6 6 6 7 8 9
11 12 12 12 12 12 11 12 12 12 13 13 14 15 16 17 17 17 17 17 17 18 19 20 20 19 19 20 21 20 19 18 18 17 16 14 11 8 6 5 4 4 4 5 5 6 7
11 12 12 12 12 12 12 12 12 13 13 13 14 14 16 17 17 17 17 18 18 18 19 19 18 18 18 19 20 20 19 18 17 16 15 13 10 7 5 4 4 3 3 3 4 5 5
11 11 12 12 12 12 12 12 13 13 13 13 14 14 15 17 18 18 18 18 17 17 17 16 16 17 17 19 19 19 19 17 16 14 13 12 9 6 5 5 4 3 3 2 3 4 4
11 11 11 12 12 12 12 12 13 13 13 14 14 14 15 17 18 19 18 17 17 16 15 15 16 17 18 18 17 18 18 16 14 13 12 11 9 7 6 5 5 4 3 2 3 3 4
11 11 11 11 12 12 12 12 12 13 13 14 14 15 16 17 18 18 17 17 18 17 14 13 15 16 18 18 17 17 18 16 14 12 12 11 9 7 5 5 5 4 3 3 3 3 3
10 10 11 11 11 12 12 12 12 13 13 14 14 15 16 17 17 16 17 18 19 16 11 11 13 15 17 17 16 17 18 16 14 12 11 10 9 7 5 4 4 4 3 3 2 2 1
10 10 10 10 11 11 12 12 12 12 13 14 15 16 17 17 16 16 17 18 18 13 8 8 12 14 15 15 15 16 17 16 14 12 12 11 9 7 5 4 4 3 3 2 2 1 1
10 10 9 9 10 10 11 12 12 12 13 14 15 16 17 16 16 17 17 17 14 9 6 8 11 12 12 13 14 15 15 15 13 12 11 11 10 9 7 5 4 3 2 2 1 1 1
10 9 9 9 9 9 10 11 12 12 13 14 15 15 16 16 16 17 17 13 8 6 6 8 9 10 11 11 12 13 13 13 12 10 10 9 10 10 9 6 4 3 2 1 1 1 1
9 9 9 8 8 8 9 10 11 12 13 14 15 15 14 15 17 16 14 9 6 6 7 9 9 9 9 10 11 11 11 11 11 11 9 8 8 10 10 8 6 4 2 1 0 0 0
9 9 8 8 7 7 8 9 10 11 12 14 15 13 13 14 16 14 10 6 5 7 8 9 8 8 8 9 10 10 10 11 12 12 10 8 8 10 11 10 8 6 4 3 1 0 0
9 8 8 7 7 7 7 8 9 10 12 13 12 11 11 13 14 11 7 6 6 8 9 9 8 8 7 8 8 9 10 11 12 13 12 10 9 10 11 10 9 8 6 4 3 1 1
8 8 8 7 7 7 7 8 9 9 11 12 10 9 10 12 11 8 6 6 8 10 10 9 8 8 7 7 8 8 9 11 13 13 13 11 9 9 9 10 9 8 7 6 4 3 2
8 8 7 7 7 7 7 8 8 9 10 11 9 8 9 10 8 7 6 7 9 10 10 9 9 9 8 8 7 8 9 11 13 13 12 11 9 7 8 9 10 9 8 7 5 4 3
7 7 7 7 7 7 8 8 8 8 9 10 9 9 9 9 8 7 7 8 9 9 9 9 9 9 9 8 8 8 9 12 13 13 12 11 9 6 7 8 10 9 9 8 7 5 4
6 6 7 7 7 8 8 8 8 8 8 9 9 9 9 9 9 9 9 9 8 9 9 9 9 9 9 8 8 8 9 11 13 13 13 11 9 7 6 7 8 8 9 8 7 6 5
6 6 7 7 8 8 8 8 8 8 8 8 8 8 8 9 10 10 10 9 8 8 9 9 9 9 8 8 7 8 9 10 11 12 12 10 8 7 7 8 8 8 8 8 8 7 6
7 7 7 8 8 8 8 8 8 8 8 8 7 7 8 9 10 10 10 10 9 8 8 9 9 9 9 8 8 9 9 10 10 10 10 9 8 6 6 7 7 7 8 8 8 8 7
7 7 8 8 8 8 8 8 8 8 8 8 8 8 8 8 9 9 9 9 9 8 8 8 8 9 9 10 11 11 11 11 10 10 9 9 8 6 5 5 6 6 8 8 8 8 9
8 8 8 8 8 8 9 8 8 8 8 8 8 8 7 7 7 8 8 8 9 9 8 8 9 9 11 12 11 11 10 10 10 10 9 9 8 6 4 4 4 6 8 9 8 9 9
8 8 8 8 8 8 9 9 8 8 8 8 8 8 7 7 7 7 7 8 8 8 8 8 9 11 12 11 9 8 7 7 8 9 9 9 8 6 4 3 4 6 8 9 9 8 9
9 9 9 8 8 8 9 9 8 8 8 8 8 8 7 7 7 7 7 7 7 7 7 8 10 11 11 9 6 5 5 6 6 7 8 8 7 6 4 3 4 7 9 10 8 8 9
8 9 9 9 9 8 8 8 8 8 8 8 8 8 7 7 7 7 7 7 7 7 7 8 9 9 9 7 5 4 5 5 5 6 6 6 6 5 4 3 4 7 9 9 8 8 10
8 8 8 9 8 8 8 8 8 8 8 8 8 8 7 7 6 7 7 7 7 7 7 7 8 8 7 6 5 5 5 5 5 5 6 5 5 4 4 4 5 8 9 9 9 10 10
7 7 8 8 8 8 8 8 8 8 8 8 8 8 8 7 6 7 7 7 7 7 7 7 7 8 7 6 5 5 5 5 5 5 6 5 5 4 4 5 6 9 9 10 10 10 11